Regional Weather Roundup
Issued by NWS

Home | Current Version | Previous Version | Text Only | Print | Product List | Glossary On
Versions: 1 2 3 4 5 6 7 8 9 10 11 12 13 14 15 16 17 18 19 20 21 22 23 24 25 26 27
000
ASUS46 KSEW 270510
RWRWA

WASHINGTON REGIONAL WEATHER ROUNDUP
NATIONAL WEATHER SERVICE SEATTLE WA
1000 PM PDT FRI AUG 26 2016

NOTE:"FAIR" INDICATES FEW OR NO CLOUDS BELOW 12,000 FEET WITH NO
SIGNIFICANT WEATHER AND/OR OBSTRUCTIONS TO VISIBILITY.

WAZ505-507>509-270600-
SEATTLE, TACOMA, EVERETT, AND VICINITY

CITY           SKY/WX    TMP DP  RH WIND       PRES   REMARKS
EVERETT        PTCLDY    76  47  35 N3        29.83S
BOEING FIELD   PTCLDY    79  45  29 W6        29.80R
RENTON         PTCLDY    76  55  48 S3        29.79S
SEATAC AIRPORT PTCLDY    79  46  31 W3        29.82F
JBLM-MCCHORD   CLEAR     71  52  50 S2        29.81S
PUYALLUP       CLOUDY    73  57  56 CALM      29.83F
BREMERTON      CLEAR     66  52  59 CALM      29.85F
JBLM-FT LEWIS  CLEAR     72  52  48 SE3       29.81S
TACOMA NARROWS CLEAR     79  46  31 S6        29.81S
$$

WAZ001-503-506-510-514-515-270600-
NORTH INTERIOR

CITY           SKY/WX    TMP DP  RH WIND       PRES   REMARKS
BELLINGHAM     PTCLDY    72  52  49 S7G18     29.76F
FRIDAY HARBOR  PTCLDY    58  51  78 CALM      29.79F
EASTSOUND      PTCLDY    72  50  46 S6        29.76S
PORT ANGELES   CLEAR     69  48  47 W8        29.82S
EDIZ HOOK      FAIR      69  49  49 W12G17    29.80F
PORT TOWNSEND  FAIR      64  55  72 CALM      29.80F
NAS WHIDBEY    MOCLDY    65  48  54 W7        29.84S
ARLINGTON      PTCLDY    70  48  46 NE6       29.82S
BURLINGTON     CLEAR     70  50  49 CALM      29.79F
$$

WAZ020-022-039-040-504-511-512-270600-
SOUTHWEST INTERIOR

CITY           SKY/WX    TMP DP  RH WIND       PRES   REMARKS
SHELTON        CLEAR     76  49  38 W8        29.79S
OLYMPIA        CLEAR     69  51  52 S8        29.81F
CHEHALIS       FAIR      72  57  60 CALM      29.83S
KELSO          CLEAR     75  54  47 NE3       29.84S
VANCOUVER      CLEAR     82  50  32 NW6       29.81R
SCAPPOOSE, OR  CLEAR     80  48  32 N6        29.81R
PORTLAND, OR   CLEAR     81  50  33 NW7       29.81R
$$

WAZ021-516-517-270600-
WASHINGTON COAST

CITY           SKY/WX    TMP DP  RH WIND       PRES   REMARKS
FORKS          CLEAR     58  56  93 S3        29.84F
HOQUIAM          N/A     60  59  96 SW9       29.86R
ASTORIA, OR    CLEAR     61  56  83 SW9       29.87R
$$

WAZ019-023-024-040-518-519-270600-
CASCADE MOUNTAINS AND COLUMBIA GORGE

CITY           SKY/WX    TMP DP  RH WIND       PRES   REMARKS
STAMPEDE PASS  CLEAR     62  43  49 VRB5      30.00F
TROUTDALE, OR  CLEAR     81  50  33 W6        29.80S
THE DALLES, OR PTCLDY    81  43  26 SW6       29.77R
$$

WAZ026-027-041>044-520-521-270600-
EAST SLOPES

CITY           SKY/WX    TMP DP  RH WIND       PRES   REMARKS
OMAK           PTCLDY    79  42  26 N3        29.75S
WENATCHEE      MOCLDY    76  43  30 N9        29.78F
ELLENSBURG     MOCLDY    73  45  36 NW5       29.84S
YAKIMA         MOCLDY    70  49  47 W8        29.81F
$$

WAZ028-034-035-270600-
COLUMBIA BASIN

CITY           SKY/WX    TMP DP  RH WIND       PRES   REMARKS
EPHRATA        MOCLDY    74  48  39 SW6       29.77F
MOSES LAKE     MOCLDY    76  47  35 S7        29.78F
PASCO          MOCLDY    74  50  42 SE5       29.77F
HERMISTON, OR  PTCLDY    73  41  31 S9        29.78S
$$

WAZ036>038-270600-
NORTHEAST WASHINGTON

CITY           SKY/WX    TMP DP  RH WIND       PRES   REMARKS
SPOKANE GEIGER CLOUDY    75  37  25 SW9       29.84F
SPOKANE FELTS  CLOUDY    72  39  30 NE3       29.83F
FAIRCHILD AFB  CLOUDY    74  39  27 SW9       29.85F
COEURDALENE,ID CLOUDY    70  46  43 CALM      29.83S
DEER PARK      CLOUDY    67  37  33 CALM      29.83F
$$

WAZ029>033-270600-
SOUTHEAST WASHINGTON

CITY           SKY/WX    TMP DP  RH WIND       PRES   REMARKS
PULLMAN        MOCLDY    62  36  37 CALM      29.90F
LEWISTON, ID   PTCLDY    74  37  26 S6        29.83S
WALLA WALLA    PTCLDY    73  39  29 SE8       29.82S
PENDLETON, OR  PTCLDY    70  36  28 SE8       29.84F
$$




USA.gov is the U.S. government's official web portal to all federal, state and local government web resources and services.